Temperature
18 18 18 18 18 17 17 17 17 17 17 17 16 16 16 16 16 16 16 16 16 16 16 16 16 16 15 15 15 15 15 15 15 15 14 14 14 14 14 14 14 14 14
18 18 18 18 18 17 17 17 17 17 17 17 17 16 16 16 16 16 16 16 16 16 16 16 16 16 15 15 15 15 15 15 15 14 14 14 14 14 14 14 14 14 14
18 18 18 18 18 17 17 17 17 17 17 16 16 16 16 16 16 16 16 16 16 16 16 16 16 15 15 15 15 15 15 15 15 14 14 14 14 13 13 13 13 13 13
18 18 18 18 18 18 17 17 17 17 16 16 16 16 16 16 16 16 16 16 16 16 15 15 15 15 15 15 15 15 15 15 15 15 14 14 14 14 13 13 13 13 13
18 18 18 18 18 18 17 17 17 17 16 16 16 16 16 16 16 16 16 16 15 15 15 15 15 15 15 15 15 15 15 15 15 15 15 14 14 14 14 13 13 13 13
18 18 18 18 18 17 17 17 17 17 16 16 16 16 16 16 16 16 16 16 15 15 15 15 15 15 15 15 15 15 15 15 15 15 15 14 14 14 14 13 13 13 13
18 18 18 18 17 17 17 17 17 17 16 16 16 16 16 16 16 16 16 15 15 15 15 15 15 15 15 15 15 15 15 15 15 15 14 14 14 14 14 14 13 13 12
18 18 18 18 17 17 17 17 17 17 17 16 16 16 16 16 16 15 15 15 15 15 15 15 15 15 15 15 15 15 15 14 14 14 14 14 14 14 14 14 13 13 12
18 18 18 18 17 17 17 17 17 17 16 16 16 16 16 16 16 15 15 15 15 15 15 15 15 15 15 15 14 14 14 14 14 14 14 14 14 14 14 13 13 13 13
18 18 18 18 18 17 17 17 17 17 17 16 16 16 16 15 15 15 15 15 15 15 15 15 15 15 15 14 14 14 14 14 14 14 14 14 14 14 13 13 13 13 13
17 18 18 18 17 17 17 17 17 17 16 16 16 16 16 15 15 15 15 15 15 15 15 15 15 14 14 14 14 14 14 14 14 14 14 14 14 13 13 13 13 13 13
18 18 18 17 17 17 17 17 17 16 16 16 16 16 16 15 15 15 15 15 15 15 15 15 14 14 14 14 14 14 14 14 14 14 14 13 13 13 13 13 13 13 13
17 17 17 17 17 17 17 17 17 16 16 16 16 16 16 15 15 15 15 15 15 15 14 14 14 14 14 14 14 14 14 14 14 14 13 13 13 13 13 13 13 13 12
17 17 17 17 17 17 17 17 16 16 16 16 16 16 16 15 15 15 15 15 15 15 14 14 14 14 14 14 14 14 14 14 14 13 13 13 13 13 13 12 12 12 12
17 17 17 17 16 16 16 16 16 16 16 16 16 16 15 15 15 15 15 15 15 15 14 14 14 14 14 14 14 14 14 13 13 13 13 13 13 13 12 12 12 12 12
16 16 16 16 16 16 16 16 16 16 16 16 16 16 15 15 15 15 15 15 15 14 14 14 14 14 14 14 14 14 13 13 13 13 13 13 12 12 12 12 12 12 12
16 16 16 16 16 16 16 16 16 16 15 15 15 15 15 15 15 15 15 14 14 14 14 14 14 14 14 14 13 13 13 13 13 13 13 12 12 12 12 12 12 12 11
16 16 16 16 16 16 16 16 16 15 15 15 15 15 15 15 15 15 14 14 14 14 14 14 14 14 14 13 13 13 13 13 13 12 12 12 12 12 12 12 12 11 11
16 16 16 16 16 16 16 16 16 15 15 15 15 15 15 15 15 15 14 14 14 14 14 14 14 13 13 13 13 13 13 13 13 12 12 12 12 12 11 11 11 11 11
16 16 16 16 16 16 15 15 15 15 15 15 15 15 15 15 15 14 14 14 14 14 14 13 13 13 13 13 13 13 12 12 12 12 12 12 12 11 11 11 11 11 11
16 16 16 16 16 15 15 15 15 15 15 15 15 15 15 14 14 14 14 14 14 13 13 13 13 13 13 13 12 12 12 12 12 12 12 12 11 11 11 11 10 10 10
15 16 16 16 15 15 15 15 15 15 15 14 14 14 14 14 14 14 14 13 13 13 13 13 13 13 13 12 12 12 12 12 12 12 12 11 11 11 11 10 10 10 9
15 15 15 15 15 15 15 15 15 15 14 14 14 14 14 14 14 14 13 13 13 13 13 13 13 12 12 12 12 12 12 11 11 11 11 11 11 10 10 10 10 9 9
15 15 15 15 15 15 15 15 14 14 14 14 14 14 14 14 13 13 13 13 13 13 12 12 12 12 12 12 12 11 11 11 11 11 11 10 10 10 10 10 9 9 9
15 15 15 15 15 15 15 14 14 14 14 14 14 13 13 13 13 13 13 13 13 12 12 12 12 12 12 12 11 11 11 11 11 11 10 10 10 10 10 9 9 9 9
15 14 14 14 14 14 14 14 14 14 13 13 13 13 13 13 13 13 12 12 12 12 12 12 12 12 12 11 11 11 11 11 10 10 10 10 10 10 9 9 9 9 8
Wind_Speed
5 2 4 5 6 5 5 5 4 3 3 2 2 2 1 1 1 1 2 3 4 5 5 4 4 4 4 4 4 4 4 3 2 3 3 4 4 4 4 4 5 6 7
3 2 3 4 6 6 6 5 5 4 4 3 2 2 2 1 1 1 2 3 4 5 5 5 4 3 4 4 4 4 3 2 1 2 2 2 4 4 5 4 4 4 6
6 5 4 5 5 6 7 7 6 5 4 4 3 3 3 2 2 1 1 1 3 4 5 5 4 3 4 4 3 4 4 3 1 1 3 3 1 1 3 4 4 4 4
5 5 5 6 7 7 6 6 6 5 4 5 5 5 4 2 2 1 1 1 2 4 5 5 5 4 3 3 3 3 3 4 2 1 2 2 3 2 1 3 4 4 4
7 6 7 8 7 6 6 6 6 5 4 5 6 5 3 2 2 1 2 1 1 2 4 4 4 3 3 3 3 3 3 3 3 2 2 2 2 2 2 0 3 4 4
7 7 6 6 6 5 6 6 6 5 4 5 5 6 6 4 4 2 2 1 1 1 2 4 4 3 3 3 3 3 3 3 3 2 2 2 2 2 2 2 0 1 3
7 7 7 7 7 7 7 6 7 5 5 5 6 6 6 6 6 4 4 3 1 1 1 2 3 2 3 4 4 3 3 3 3 3 2 2 2 2 2 3 1 0 2
7 8 8 8 8 8 8 7 7 6 6 6 6 5 5 4 4 4 4 4 3 2 2 3 3 3 4 4 4 3 2 2 3 3 2 2 1 2 2 3 3 1 1
7 8 7 7 7 8 8 9 8 6 6 6 5 5 5 5 4 4 3 3 3 3 3 3 3 3 4 4 4 3 2 3 2 2 2 2 1 1 1 2 3 3 1
5 6 6 6 6 7 7 8 8 8 7 6 6 5 5 5 5 4 4 4 3 3 4 4 3 3 3 4 4 3 3 3 2 2 3 2 1 1 1 1 1 2 3
4 6 6 6 6 6 7 7 7 6 6 6 5 5 5 5 5 4 4 4 4 4 4 4 4 3 3 4 4 3 4 4 3 2 2 1 1 1 1 2 2 2 2
3 4 5 5 5 6 6 7 7 7 6 6 5 6 5 5 5 4 4 4 4 4 4 4 4 4 4 4 4 4 4 4 3 3 3 2 2 2 1 2 2 1 2
1 2 3 5 6 7 7 7 8 7 6 6 6 5 5 6 5 5 4 4 5 4 4 4 5 4 4 4 4 4 4 4 3 3 3 2 3 2 2 2 2 2 2
1 1 3 4 5 5 7 7 7 7 7 6 6 6 6 6 6 5 4 5 5 5 4 4 4 4 4 4 4 4 4 3 3 2 2 2 3 3 3 2 2 3 4
1 1 3 4 4 4 5 6 6 6 6 6 7 7 6 5 5 5 4 4 5 5 4 4 4 3 3 4 5 5 5 4 3 2 2 2 3 4 4 3 3 4 4
3 3 3 4 4 5 5 6 6 6 6 6 6 6 5 5 5 5 5 5 4 4 4 4 4 4 3 5 7 6 5 4 4 3 2 2 2 3 4 5 6 6 5
3 3 4 4 5 5 6 7 6 6 6 6 6 6 6 6 5 5 5 5 5 4 4 4 4 4 4 6 7 7 5 4 4 3 2 2 2 3 3 5 6 5 4
3 3 4 4 4 4 4 5 5 6 6 6 6 6 6 6 5 5 5 4 4 4 4 4 3 3 4 6 7 8 5 4 3 3 3 3 2 3 4 4 4 3 3
4 5 5 5 4 4 4 5 5 6 6 6 6 6 7 7 6 6 5 4 4 3 3 3 4 4 3 5 7 8 4 3 2 2 3 3 3 4 6 5 5 3 2
2 3 3 3 4 4 5 6 6 6 7 7 7 7 7 8 7 6 5 3 3 3 4 3 3 4 4 5 7 8 4 4 2 2 2 3 4 5 7 5 5 3 1
1 2 3 4 4 5 6 6 5 6 7 5 6 6 6 7 7 6 5 5 4 4 3 3 2 2 3 5 7 8 4 4 3 2 2 2 4 5 6 5 4 4 4
1 2 2 3 3 5 7 6 6 6 5 5 6 6 6 6 6 6 5 5 6 5 4 3 2 1 2 3 5 8 7 6 4 3 2 3 5 5 5 4 4 6 6
1 1 2 2 3 5 7 7 5 5 6 6 6 5 6 5 6 7 6 5 5 5 4 4 3 2 1 2 4 7 7 7 4 3 4 5 6 5 4 4 5 6 4
1 1 2 2 3 4 5 5 5 5 7 7 6 6 6 5 5 5 6 6 6 5 5 5 4 3 2 2 2 3 4 5 4 3 4 6 6 5 4 4 3 3 3
2 2 3 3 4 4 4 4 5 6 6 7 6 6 6 6 6 4 4 6 6 7 7 6 6 6 5 6 8 7 5 5 5 5 3 3 2 2 1 1 2 2 2
2 2 2 3 3 4 4 4 5 7 7 6 6 6 5 5 5 5 2 1 3 5 6 6 6 5 5 7 8 8 8 9 10 6 3 3 3 3 3 3 2 2 2
Wind_Direction
249 223 200 187 173 167 166 169 167 156 132 119 122 116 114 95 72 72 91 117 129 133 126 124 120 119 120 124 122 113 98 79 83 81 49 27 35 45 37 38 43 42 45
252 228 199 183 179 174 171 173 175 167 163 155 145 138 133 124 105 56 75 108 134 142 141 136 135 128 120 116 127 128 119 101 82 117 97 29 8 21 25 25 36 35 39
227 218 201 192 184 180 181 186 183 177 171 150 121 97 78 63 56 46 37 56 128 139 138 138 133 135 136 143 153 148 141 144 75 81 135 134 190 350 1 18 28 26 31
222 206 199 197 197 195 186 181 178 178 175 159 153 148 149 158 183 177 168 90 112 126 130 134 131 135 137 144 155 141 142 140 142 75 59 112 147 141 29 356 6 22 29
217 206 204 204 202 191 182 180 173 176 177 171 166 156 149 160 139 117 113 92 81 107 127 136 130 134 138 144 138 130 134 137 147 146 123 90 71 93 136 17 342 4 10
214 209 206 199 194 182 177 172 172 179 178 172 168 168 162 156 145 145 141 132 90 76 112 128 130 137 142 149 148 142 137 135 132 131 135 146 142 149 139 156 230 351 342
204 202 198 196 189 181 178 175 174 180 181 177 179 179 172 169 172 174 169 164 155 153 159 132 134 143 148 145 136 134 138 138 133 138 140 140 142 147 146 142 156 72 342
201 204 202 199 193 187 180 179 181 181 180 184 189 182 176 172 179 180 176 179 186 179 160 142 142 142 136 135 128 124 133 128 126 124 121 113 116 136 149 152 148 118 12
208 209 205 198 193 189 185 183 184 181 184 190 185 183 180 179 183 182 175 177 179 165 142 143 141 134 131 130 129 122 126 121 116 120 117 111 103 109 129 146 157 153 156
220 214 207 201 195 188 182 180 182 185 186 184 184 186 186 187 183 173 175 175 171 157 147 148 146 143 128 126 124 120 126 119 113 118 109 94 99 93 110 135 128 138 156
234 216 206 200 190 180 178 179 182 180 180 180 183 182 185 178 173 177 182 176 167 161 158 157 153 157 149 141 132 131 133 128 114 108 114 102 95 100 97 102 103 104 130
236 220 197 185 182 184 185 184 181 183 186 182 182 183 175 166 172 178 180 165 157 155 159 157 157 160 155 151 151 148 140 136 131 126 119 120 111 92 98 105 112 118 126
259 216 183 183 190 191 189 187 184 185 182 175 177 178 172 171 179 179 173 164 161 154 151 152 156 160 160 156 155 150 142 137 138 140 139 144 128 111 108 106 108 104 98
241 208 193 195 196 190 186 186 186 180 177 173 175 184 188 182 182 176 170 170 165 157 158 159 157 159 158 156 149 145 140 134 130 133 140 144 144 151 144 130 126 114 101
237 231 198 194 192 185 184 183 181 173 174 174 180 191 187 175 165 161 161 160 158 158 158 152 150 149 155 163 152 150 146 142 132 118 114 129 146 151 146 140 143 130 116
239 242 209 187 189 191 191 184 178 175 170 175 184 179 169 165 164 164 155 150 148 147 147 152 155 158 172 164 159 150 144 144 141 134 114 106 100 116 122 127 135 137 137
245 230 214 204 199 196 187 187 183 167 167 176 174 165 163 163 166 161 152 155 159 152 149 159 160 161 168 162 155 152 144 145 150 145 127 109 99 104 106 104 101 102 120
246 242 218 212 206 192 182 174 161 164 170 173 169 164 160 160 155 152 159 163 158 159 162 165 168 163 172 162 153 145 132 129 131 135 143 146 144 131 125 116 99 82 70
240 229 215 209 192 180 175 158 159 164 171 178 175 171 165 162 159 162 166 161 153 158 160 164 167 169 179 162 153 140 131 127 130 132 138 148 152 149 136 125 119 94 54
243 209 198 186 174 174 157 155 166 169 183 187 181 174 169 167 170 172 162 151 150 154 152 153 168 176 180 169 159 145 140 138 140 121 135 158 155 149 143 139 139 141 166
220 169 170 181 188 170 156 157 166 189 197 182 169 167 170 170 167 161 154 149 144 136 137 140 146 167 178 171 164 154 155 160 155 158 175 178 159 151 148 144 152 168 150
131 153 172 194 178 163 160 164 183 195 175 162 163 166 164 163 158 153 153 151 148 145 147 142 139 158 175 171 172 167 162 154 156 178 188 173 158 152 148 144 145 138 123
196 174 178 187 176 172 173 178 191 171 159 158 164 167 162 159 157 158 155 151 155 160 167 167 169 178 181 175 169 169 166 160 157 164 156 151 151 145 138 140 138 130 121
216 179 159 173 198 190 183 185 171 160 159 165 168 165 164 161 159 162 164 165 170 171 175 179 183 182 180 183 168 163 159 155 148 132 124 123 122 119 119 116 118 119 137
225 185 184 199 204 193 189 183 164 159 165 169 167 166 171 168 167 170 177 180 187 185 183 190 186 182 195 202 180 170 174 171 159 129 102 99 102 111 104 104 115 121 124
205 192 199 203 200 186 193 185 171 168 170 173 173 170 170 170 167 161 141 108 167 181 183 178 175 188 187 172 171 174 172 162 150 134 140 158 168 176 180 177 177 172 180
Height
1529 1530 1531 1533 1534 1536 1538 1540 1542 1544 1545 1547 1548 1549 1550 1551 1553 1554 1554 1555 1556 1556 1557 1558 1558 1559 1560 1560 1561 1561 1561 1562 1562 1562 1562 1562 1562 1561 1561 1560 1559 1559 1558
1527 1528 1529 1531 1533 1534 1536 1539 1541 1543 1544 1546 1548 1549 1550 1551 1552 1553 1554 1555 1556 1557 1557 1558 1558 1559 1560 1560 1561 1561 1561 1562 1562 1562 1562 1562 1563 1562 1562 1561 1560 1560 1559
1525 1526 1528 1530 1531 1533 1535 1537 1540 1542 1543 1545 1547 1548 1550 1551 1552 1553 1554 1555 1556 1557 1557 1558 1558 1559 1559 1560 1560 1561 1561 1561 1562 1562 1563 1562 1562 1562 1562 1562 1561 1560 1560
1523 1524 1526 1528 1530 1532 1534 1536 1538 1540 1542 1544 1545 1547 1548 1549 1550 1552 1553 1554 1555 1556 1557 1558 1558 1559 1559 1559 1560 1560 1561 1561 1562 1562 1562 1563 1562 1562 1562 1562 1562 1561 1560
1520 1522 1524 1526 1528 1531 1533 1535 1537 1539 1541 1542 1544 1546 1547 1548 1550 1551 1552 1554 1555 1556 1556 1557 1558 1558 1559 1559 1560 1560 1561 1561 1561 1561 1561 1561 1561 1561 1561 1561 1561 1561 1560
1517 1519 1522 1524 1526 1529 1531 1533 1535 1537 1539 1541 1542 1544 1545 1547 1549 1550 1551 1552 1554 1555 1556 1556 1557 1557 1558 1559 1559 1560 1560 1560 1561 1561 1561 1561 1561 1560 1560 1560 1560 1560 1560
1514 1516 1518 1521 1523 1526 1528 1531 1533 1535 1537 1539 1541 1543 1544 1546 1547 1549 1550 1551 1553 1554 1555 1556 1556 1557 1557 1558 1559 1559 1560 1560 1560 1560 1560 1560 1560 1560 1560 1559 1559 1559 1559
1511 1513 1515 1517 1520 1523 1526 1528 1531 1533 1535 1537 1539 1541 1543 1544 1546 1547 1549 1550 1551 1553 1554 1555 1555 1556 1557 1557 1558 1558 1559 1559 1559 1560 1560 1560 1559 1559 1559 1559 1558 1558 1558
1508 1510 1512 1515 1517 1520 1523 1526 1528 1531 1533 1535 1538 1539 1541 1543 1544 1546 1547 1549 1550 1552 1553 1554 1555 1555 1556 1556 1557 1557 1558 1558 1559 1559 1559 1559 1559 1558 1559 1558 1558 1558 1557
1507 1508 1510 1512 1515 1518 1521 1523 1526 1528 1531 1533 1536 1538 1540 1541 1543 1544 1546 1547 1549 1550 1551 1553 1554 1554 1555 1556 1556 1557 1557 1557 1558 1558 1558 1558 1558 1558 1557 1557 1557 1557 1557
1505 1506 1508 1510 1513 1516 1518 1521 1524 1526 1529 1532 1534 1536 1537 1539 1541 1543 1544 1546 1547 1549 1550 1551 1552 1553 1554 1555 1555 1556 1556 1557 1557 1557 1557 1557 1557 1557 1557 1557 1556 1556 1556
1504 1504 1506 1508 1511 1513 1516 1519 1521 1524 1527 1529 1532 1534 1536 1537 1539 1541 1542 1544 1546 1547 1548 1550 1551 1552 1553 1553 1554 1555 1555 1556 1556 1556 1556 1556 1556 1556 1556 1556 1556 1555 1555
1502 1503 1504 1506 1508 1511 1513 1516 1519 1522 1524 1527 1530 1532 1534 1535 1537 1539 1541 1542 1544 1545 1547 1548 1549 1550 1551 1552 1553 1554 1554 1555 1555 1555 1555 1555 1555 1555 1555 1555 1555 1554 1554
1501 1501 1502 1504 1506 1508 1511 1514 1516 1519 1522 1524 1527 1529 1531 1533 1535 1537 1539 1541 1542 1544 1545 1546 1548 1549 1550 1551 1552 1552 1553 1554 1554 1554 1554 1554 1554 1555 1555 1554 1554 1554 1554
1499 1500 1501 1502 1504 1506 1508 1511 1514 1517 1519 1522 1525 1527 1530 1532 1534 1535 1537 1539 1540 1542 1544 1545 1546 1547 1548 1549 1550 1551 1552 1552 1552 1553 1553 1553 1554 1554 1554 1554 1553 1553 1553
1498 1499 1500 1501 1502 1504 1506 1509 1512 1514 1517 1520 1522 1525 1527 1529 1531 1533 1535 1537 1538 1540 1542 1543 1544 1545 1546 1547 1549 1549 1550 1551 1551 1552 1552 1552 1553 1553 1553 1553 1553 1553 1552
1497 1497 1498 1499 1500 1502 1504 1507 1509 1512 1515 1517 1520 1523 1525 1527 1529 1531 1533 1535 1536 1538 1540 1541 1542 1543 1545 1546 1547 1548 1549 1549 1550 1550 1551 1551 1552 1552 1552 1552 1552 1552 1552
1494 1495 1496 1497 1499 1500 1502 1505 1508 1510 1513 1515 1518 1520 1523 1525 1527 1529 1531 1533 1535 1536 1538 1539 1540 1542 1543 1544 1545 1546 1547 1548 1548 1549 1550 1550 1550 1551 1551 1551 1551 1551 1551
1493 1493 1494 1496 1497 1498 1500 1503 1505 1508 1510 1513 1515 1518 1520 1523 1525 1527 1529 1531 1532 1534 1535 1537 1538 1539 1540 1542 1543 1545 1545 1546 1547 1547 1548 1548 1549 1549 1550 1550 1550 1550 1549
1491 1491 1492 1493 1495 1496 1498 1500 1502 1505 1507 1510 1513 1516 1518 1521 1523 1525 1527 1529 1530 1532 1533 1534 1536 1537 1538 1540 1541 1543 1543 1544 1545 1546 1546 1547 1547 1548 1548 1548 1548 1548 1548
1488 1489 1490 1491 1493 1494 1496 1498 1500 1502 1505 1508 1511 1513 1516 1518 1520 1523 1525 1526 1528 1529 1531 1532 1534 1535 1537 1538 1539 1540 1541 1542 1543 1543 1544 1545 1546 1546 1546 1547 1547 1547 1547
1486 1487 1488 1489 1491 1492 1494 1495 1497 1500 1503 1506 1508 1511 1513 1516 1518 1520 1522 1524 1525 1527 1528 1530 1531 1533 1534 1536 1537 1538 1539 1540 1541 1541 1542 1543 1544 1544 1545 1545 1545 1545 1545
1484 1485 1486 1487 1488 1490 1491 1493 1495 1498 1501 1503 1506 1509 1511 1513 1515 1518 1519 1521 1523 1524 1526 1527 1528 1530 1531 1533 1534 1536 1537 1538 1539 1539 1540 1541 1541 1542 1542 1543 1543 1543 1543
1483 1484 1484 1485 1486 1488 1490 1491 1494 1496 1498 1501 1503 1506 1508 1510 1512 1515 1517 1518 1520 1521 1523 1524 1526 1527 1529 1530 1531 1532 1534 1535 1536 1537 1537 1538 1539 1539 1540 1540 1540 1540 1540
1481 1482 1483 1484 1485 1486 1488 1490 1491 1493 1495 1498 1500 1503 1505 1507 1509 1511 1514 1515 1517 1519 1520 1522 1523 1525 1526 1527 1529 1530 1531 1532 1533 1534 1535 1535 1536 1536 1536 1537 1537 1537 1538
1480 1480 1481 1482 1483 1484 1486 1488 1489 1491 1493 1495 1497 1499 1502 1504 1506 1508 1510 1512 1514 1516 1518 1520 1521 1523 1524 1525 1526 1527 1528 1529 1530 1531 1531 1532 1532 1533 1533 1534 1534 1534 1534